Location: Hylvaty SDH
(49.9612°N, 16.4057°E)
Time: 20:08:10
(UTC+02:00)

Transit 4A - Pass Details

Date: 16 August 2020
Orbit: 862 x 982 km, 66.8° (Epoch: 28 September)

Event Time Altitude Azimuth Distance (km) Brightness Sun altitude
Rises 17:20:34 0° 322° (NW) 3,653 11.4 25.9°
Reaches altitude 10° 17:23:07 10° 321° (NW) 2,716 10.8 25.5°
Maximum altitude 17:29:29 76° 238° (WSW) 1,012 8.8 24.5°
Drops below altitude 10° 17:35:52 10° 154° (SSE) 2,729 10.2 23.5°
Sets 17:38:26 0° 152° (SSE) 3,671 10.8 23.1°
